Location: Fort Worth, Tx
(32.7431°N, 97.3695°W)
Time: 14:22:47
(UTC-04:00)

Transit 2A - Pass Details

Date: 24 February 2024
Orbit: 596 x 956 km, 66.7° (Epoch: 20 April)

Event Time Altitude Azimuth Distance (km) Brightness Sun altitude
Exits shadow 05:42:32 - 1° (N) 2,253 8.5 -30.3°
Reaches altitude 10° 05:42:45 10° 3° (N) 2,188 8.5 -30.3°
Maximum altitude 05:46:49 25° 58° (ENE) 1,509 8.1 -29.5°
Drops below altitude 10° 05:51:12 10° 112° (ESE) 2,376 9.3 -28.5°
Sets 05:54:10 0° 125° (SE) 3,373 10.0 -27.9°
